Regional Weather Roundup
Issued by NWS

Current Version | Previous Version | Text Only | Print | Product List | Glossary On
Versions: 1 2 3 4 5 6 7 8 9 10 11 12 13 14 15 16 17 18 19 20 21 22 23 24 25 26 27 28 29 30 31 32 33 34 35 36 37 38 39 40 41 42 43 44 45 46 47 48 49 50
000
ASUS44 KJAN 202210
RWRMS

MISSISSIPPI HOURLY WEATHER ROUNDUP
NATIONAL WEATHER SERVICE JACKSON MS
500 PM CDT FRI OCT 20 2017

NOTE: "FAIR: INDICATES FEW OR NO CLOUDS BELOW 12,000 FEET WITH NO
SIGNIFICANT WEATHER AND/OR OBSTRUCTIONS TO VISIBILITY.

MSZ001>002-007>008-010>013-018>021-025>028-034>036-202300-
NORTHWEST MISSISSIPPI

CITY           SKY/WX    TMP DP  RH WIND       PRES   REMARKS
BATESVILLE     FAIR      78  54  43 CALM      30.12F
CLARKSDALE       N/A     77  57  50 E8        30.10F
CLEVELAND      FAIR      78  57  47 SE7       30.08S
GREENWOOD      CLOUDY    77  60  55 NE6       30.09F
GREENVILLE     MOSUNNY   77  52  41 SE13      30.08S
OLIVE BRANCH   PTSUNNY  N/A N/A N/A CALM      30.11F
OXFORD         FAIR      73  54  49 SE6       30.13F
TUNICA           N/A    N/A N/A N/A E8        30.11F
WINONA         FAIR      76  58  53 SE3       30.10F
$$

MSZ003>006-009-014>017-022>024-029>033-037>039-202300-
NORTHEAST MISSISSIPPI

CITY           SKY/WX    TMP DP  RH WIND       PRES   REMARKS
COLUMBUS AFB   MOSUNNY   76  59  54 E7        30.12F
CORINTH        FAIR      75  50  41 S3        30.14S
GOLDN TRIANGLE MOSUNNY   77  58  51 E7        30.13F
STARKVILLE     FAIR      77  59  53 CALM      30.13F
TUPELO         MOSUNNY   77  50  38 SE7       30.14S
$$

MSZ040-058-202300-
CENTRAL MISSISSIPPI

CITY           SKY/WX    TMP DP  RH WIND       PRES   REMARKS
JACKSON INTL   PTSUNNY   81  61  50 SE10      30.09S
JACKSON HAWKNS MOSUNNY   78  61  55 SE9       30.09S
MADISON        FAIR      77  59  53 E3        30.09S
MERIDIAN KEY   MOSUNNY   78  61  55 E7        30.11F
MERIDIAN NAS   PTSUNNY   79  59  50 E8        30.12F
RAYMOND        FAIR      77  70  78 CALM      30.08S
VICKSBURG VKS  CLEAR     79  63  57 CALM      30.09S
$$

MSZ059>079-202300-
SOUTH MISSISSIPPI

CITY           SKY/WX    TMP DP  RH WIND       PRES   REMARKS
HATTIESBURG    MOSUNNY   80  64  58 E7        30.09S
LAUREL         FAIR      79  61  54 E8        30.10R
MCCOMB         PTSUNNY   78  65  63 SE6       30.07S
NATCHEZ        CLOUDY    77  66  68 E3        30.07F
PINE BELT      CLOUDY    80  64  58 E6        30.10S
$$

MSZ080>082-202300-
COASTAL MISSISSIPPI

CITY           SKY/WX    TMP DP  RH WIND       PRES   REMARKS
BAY ST LOUIS   MOSUNNY   77  66  69 E7        30.08
BILOXI         CLOUDY    78  67  69 SE10      30.07S
PASCAGOULA     CLOUDY    79  62  56 E6        30.08R
GULFPORT       CLOUDY    78  67  68 SE12      30.07R
$$

LAZ007>009-015>016-023>026-202300-
NORTHEAST LOUISIANA

CITY           SKY/WX    TMP DP  RH WIND       PRES   REMARKS
BASTROP        FAIR      75  60  60 CALM      30.08S
TALLULAH/VBURG CLOUDY    78  62  57 SE10      30.07F
VIDALIA          N/A    N/A N/A N/A MISG      30.05F
$$



USA.gov is the U.S. government's official web portal to all federal, state and local government web resources and services.